GW4499 Weather Reports


Display with metric or nautical units.
time (UTC)temp
F
wind
direction
speed
MPH
gust
MPH
rain 1hr
in
rain 24hr
in
rain mn
in
humidity
%
barometer
mb
20260510014519 53 315 4.0 11.0 0.00 0.00 0.00 64 1016.1
20260510013519 54 315 3.0 11.0 0.00 0.00 0.00 64 1015.1
20260510011519 54 315 4.0 11.0 0.00 0.00 0.00 63 1015.0
20260510010519 55 315 4.0 8.0 0.00 0.00 0.00 64 1014.6
20260510005519 55 315 3.0 8.0 0.00 0.00 0.00 64 1014.4
20260510004559 55 315 4.0 10.0 0.00 0.00 0.00 64 1013.7
20260510003519 56 315 4.0 10.0 0.00 0.00 0.00 64 1013.3
20260510002519 56 315 4.0 12.0 0.00 0.00 0.00 63 1012.6
20260510001519 57 315 5.0 10.0 0.00 0.00 0.00 61 1012.7
20260510000519 57 315 5.0 11.0 0.00 0.00 0.00 61 1012.5
20260509235519 58 315 4.0 15.0 0.00 0.00 0.00 58 1012.0
20260509234519 59 315 5.0 15.0 0.00 0.00 0.00 55 1011.7
20260509233519 61 315 5.0 10.0 0.00 0.00 0.00 49 1011.3
20260509232519 65 338 4.0 16.0 0.00 0.00 0.00 43 1011.3
20260509231519 71 0 1.0 4.0 0.00 0.00 0.00 28 1011.5
20260509230519 71 0.0 1.0 0.00 0.00 0.00 29 1010.8
20260509225519 71 0.0 1.0 0.00 0.00 0.00 28 1010.3
20260509224519 71 0.0 2.0 0.00 0.00 0.00 29 1010.4
20260509223519 71 0.0 2.0 0.00 0.00 0.00 29 1010.3
20260509222519 71 0.0 6.0 0.00 0.00 0.00 30 1010.3
20260509221539 71 0.0 2.0 0.00 0.00 0.00 31 1010.5
20260509220540 71 45 1.0 4.0 0.00 0.00 0.00 29 1010.8
20260509215519 71 0.0 3.0 0.00 0.00 0.00 30 1010.9
20260509214518 72 203 1.0 3.0 0.00 0.00 0.00 30 1010.8
20260509213519 72 68 1.0 3.0 0.00 0.00 0.00 29 1011.2
20260509212519 72 45 1.0 4.0 0.00 0.00 0.00 28 1011.2
20260509211519 73 135 1.0 4.0 0.00 0.00 0.00 29 1011.5
20260509210519 72 23 1.0 5.0 0.00 0.00 0.00 28 1011.9
20260509205519 73 225 1.0 4.0 0.00 0.00 0.00 27 1011.9
20260509204518 74 23 1.0 5.0 0.00 0.00 0.00 25 1012.1
20260509203518 75 0.0 0.0 0.00 0.00 0.00 18 1012.0
20260509202518 76 0.0 2.0 0.00 0.00 0.00 18 1012.1
20260509201518 75 0.0 1.0 0.00 0.00 0.00 19 1012.3
20260509200539 75 0.0 2.0 0.00 0.00 0.00 20 1012.2
20260509195518 75 0.0 3.0 0.00 0.00 0.00 18 1012.2
20260509194519 76 315 2.0 7.0 0.00 0.00 0.00 17 1012.3
20260509193519 78 0 1.0 3.0 0.00 0.00 0.00 18 1012.7
20260509192519 77 315 2.0 8.0 0.00 0.00 0.00 18 1012.8
20260509191518 79 315 1.0 6.0 0.00 0.00 0.00 17 1012.8
20260509190518 78 315 2.0 5.0 0.00 0.00 0.00 16 1013.2
20260509185518 77 0 3.0 8.0 0.00 0.00 0.00 17 1013.2
20260509184538 77 315 3.0 10.0 0.00 0.00 0.00 16 1013.3
20260509183518 77 315 3.0 9.0 0.00 0.00 0.00 17 1014.1
20260509182518 77 315 4.0 8.0 0.00 0.00 0.00 17 1014.2
20260509181518 76 315 2.0 7.0 0.00 0.00 0.00 18 1014.0
20260509180518 76 315 3.0 9.0 0.00 0.00 0.00 17 1013.8
20260509175519 76 315 3.0 8.0 0.00 0.00 0.00 17 1013.9
20260509174518 76 315 3.0 6.0 0.00 0.00 0.00 16 1013.9
20260509173518 75 293 3.0 10.0 0.00 0.00 0.00 17 1013.7
20260509172539 75 315 3.0 9.0 0.00 0.00 0.00 17 1013.8
20260509171519 75 315 1.0 5.0 0.00 0.00 0.00 18 1013.9
20260509170521 75 315 2.0 5.0 0.00 0.00 0.00 19 1014.3
20260509165520 74 338 2.0 10.0 0.00 0.00 0.00 17 1013.8
20260509164520 75 315 3.0 6.0 0.00 0.00 0.00 18 1014.3
20260509163520 76 0.0 2.0 0.00 0.00 0.00 19 1014.4
20260509162520 75 270 1.0 2.0 0.00 0.00 0.00 18 1014.4
20260509161540 74 315 1.0 3.0 0.00 0.00 0.00 20 1014.2
20260509160520 72 338 1.0 3.0 0.00 0.00 0.00 22 1014.2
20260509155520 71 315 1.0 4.0 0.00 0.00 0.00 26 1014.3
20260509154520 71 315 1.0 4.0 0.00 0.00 0.00 25 1014.3
20260509153520 70 338 1.0 3.0 0.00 0.00 0.00 30 1014.4
20260509152520 70 315 1.0 4.0 0.00 0.00 0.00 29 1014.4
20260509151520 69 315 2.0 5.0 0.00 0.00 0.00 28 1014.4
20260509150518 68 338 2.0 4.0 0.00 0.00 0.00 30 1014.4
20260509145520 68 315 1.0 3.0 0.00 0.00 0.00 31 1014.4
20260509144520 67 338 1.0 4.0 0.00 0.00 0.00 31 1014.1
20260509143520 65 293 1.0 3.0 0.00 0.00 0.00 34 1014.0
20260509142520 64 315 1.0 3.0 0.00 0.00 0.00 37 1013.7
20260509141520 61 315 2.0 4.0 0.00 0.00 0.00 42 1013.5
20260509140520 59 315 1.0 3.0 0.00 0.00 0.00 47 1013.4
20260509135520 55 315 1.0 3.0 0.00 0.00 0.00 61 1012.9
20260509134520 51 0.0 1.0 0.00 0.00 0.00 79 1012.4
20260509133520 49 0.0 0.0 0.00 0.00 0.00 83 1012.0
20260509132520 48 0.0 0.0 0.00 0.00 0.00 83 1011.9
20260509131520 48 0.0 0.0 0.00 0.00 0.00 84 1011.9
20260509130520 48 0.0 0.0 0.00 0.00 0.00 85 1012.2
20260509125520 48 0.0 0.0 0.00 0.00 0.00 84 1012.3
20260509124521 47 0.0 1.0 0.00 0.00 0.00 85 1011.8
20260509123520 47 0.0 1.0 0.00 0.00 0.00 85 1011.8
20260509122520 46 0.0 0.0 0.00 0.00 0.00 84 1011.7
20260509121520 46 0.0 1.0 0.00 0.00 0.00 85 1011.3
20260509120520 46 0.0 0.0 0.00 0.00 0.00 86 1011.4
20260509115520 46 0.0 0.0 0.00 0.00 0.00 86 1011.3
20260509114520 45 0.0 1.0 0.00 0.01 0.00 87 1010.8
20260509113520 46 0.0 0.0 0.00 0.02 0.00 87 1011.0
20260509112520 46 0.0 0.0 0.00 0.04 0.00 86 1010.8
20260509111520 46 0.0 0.0 0.00 0.04 0.00 86 1010.7
20260509110520 46 0.0 0.0 0.00 0.04 0.00 86 1010.9
20260509105520 46 0.0 0.0 0.00 0.04 0.00 86 1010.7
20260509104520 46 0.0 0.0 0.00 0.04 0.00 86 1010.6
20260509103519 46 0.0 1.0 0.00 0.04 0.00 85 1010.5
20260509102600 46 0.0 1.0 0.00 0.04 0.00 85 1010.3
20260509101519 46 0.0 1.0 0.00 0.04 0.00 84 1010.2
20260509100519 47 0.0 1.0 0.00 0.04 0.00 83 1010.7
20260509095539 47 0.0 1.0 0.00 0.04 0.00 82 1010.9
20260509094519 47 0.0 1.0 0.00 0.04 0.00 82 1010.9
20260509093519 47 0.0 1.0 0.00 0.04 0.00 81 1010.8
20260509092540 48 0.0 1.0 0.00 0.04 0.00 80 1011.0
20260509091519 49 0.0 0.0 0.00 0.04 0.00 78 1011.0
20260509090519 49 0.0 1.0 0.00 0.04 0.00 76 1011.6
20260509085520 50 0.0 0.0 0.00 0.04 0.00 75 1011.7
20260509084520 51 0.0 0.0 0.00 0.04 0.00 73 1011.6
20260509083640 50 0.0 1.0 0.00 0.04 0.00 73 1011.4
20260509082520 50 0.0 0.0 0.00 0.04 0.00 75 1011.4
20260509081519 51 0.0 0.0 0.00 0.04 0.00 73 1011.5
20260509080520 51 0.0 0.0 0.00 0.04 0.00 72 1011.3
20260509075519 52 0.0 0.0 0.00 0.04 0.00 70 1011.4
20260509074519 52 0.0 1.0 0.00 0.04 0.00 69 1011.6
20260509073519 52 0.0 1.0 0.00 0.04 0.00 69 1012.1
20260509072520 53 0.0 1.0 0.00 0.04 0.00 69 1012.0
20260509071519 53 0.0 0.0 0.00 0.04 0.00 69 1012.4
20260509070519 54 0.0 1.0 0.00 0.04 0.00 65 1012.7
20260509065519 55 0.0 1.0 0.00 0.04 0.00 62 1013.0
20260509064520 56 0.0 1.0 0.00 0.04 0.00 60 1012.8
20260509063519 56 0.0 0.0 0.00 0.04 0.00 59 1013.0
20260509062519 58 0.0 0.0 0.00 0.04 0.00 54 1013.4
20260509061520 59 0.0 0.0 0.00 0.04 0.00 51 1013.4
20260509060539 59 0.0 2.0 0.00 0.04 0.00 50 1013.5
20260509055519 58 0.0 4.0 0.00 0.04 0.04 52 1013.4
20260509054540 57 0.0 2.0 0.00 0.04 0.04 57 1013.2
20260509053559 56 0.0 1.0 0.00 0.04 0.04 60 1013.0
20260509052519 56 0.0 0.0 0.00 0.04 0.04 59 1013.1
20260509051519 56 0.0 0.0 0.00 0.04 0.04 59 1013.2
20260509050519 56 0.0 0.0 0.00 0.04 0.04 58 1013.0
20260509045519 57 0.0 0.0 0.00 0.04 0.04 56 1013.1
20260509044520 57 0.0 0.0 0.00 0.04 0.04 56 1013.1
20260509043519 57 0.0 1.0 0.00 0.04 0.04 55 1012.6
20260509042539 57 0.0 1.0 0.00 0.04 0.04 55 1012.7
20260509041519 57 0.0 0.0 0.00 0.04 0.04 56 1012.7
20260509040519 58 0.0 0.0 0.00 0.04 0.04 55 1012.6
20260509035519 58 0.0 0.0 0.00 0.04 0.04 54 1012.5
20260509034520 59 0.0 0.0 0.00 0.04 0.04 53 1012.4
20260509033519 59 0.0 0.0 0.00 0.04 0.04 52 1011.8
20260509032519 60 0.0 0.0 0.00 0.04 0.04 50 1012.0
20260509031519 61 0.0 1.0 0.00 0.04 0.04 49 1012.0
20260509030519 61 0.0 1.0 0.00 0.04 0.04 47 1011.4
20260509025539 62 0.0 1.0 0.00 0.04 0.04 46 1011.9
20260509024519 62 0.0 1.0 0.00 0.04 0.04 45 1011.9
20260509023519 63 0.0 0.0 0.00 0.04 0.04 44 1012.0
20260509022519 64 0.0 1.0 0.00 0.04 0.04 43 1012.2
20260509021519 64 0.0 2.0 0.00 0.04 0.04 42 1012.2
20260509020520 65 0.0 0.0 0.00 0.04 0.04 41 1011.4
20260509015520 65 0.0 1.0 0.00 0.04 0.04 40 1011.3